Regional Weather Roundup
Issued by NWS Kansas City/Pleasant Hill, MO

Home | Current Version | Previous Version | Text Only | Print | Product List | Glossary On
Versions: 1 2 3 4 5 6 7 8 9 10 11 12 13 14 15 16 17 18 19 20 21 22 23 24 25 26 27 28 29 30 31 32 33 34 35 36 37 38 39 40 41 42 43 44 45 46 47 48 49 50
000
ASUS43 KEAX 220210
RWREAX

WEATHER ROUNDUP FOR EASTERN KANSAS AND NORTHWEST MISSOURI
NATIONAL WEATHER SERVICE KANSAS CITY/PLEASANT HILL MO
900 PM CDT TUE OCT 21 2014

KSZ040-057-103>105-MOZ028-029-037-043-220300-
...KANSAS CITY METROPOLITAN AREA...

CITY           SKY/WX    TMP DP  RH WIND       PRES   REMARKS
K.C. INTL      CLEAR     61  43  51 E10       30.10R
K.C. DOWNTOWN  CLEAR     62  44  51 SE6       30.09R
LEES SUMMIT    CLEAR     61  43  51 SE6       30.11R
OLATHE - IXD   CLEAR     60  45  57 E6        30.10R
OLATHE - OJC   CLEAR     61  43  51 E6        30.09R
LAWRENCE       CLEAR     56  44  64 E5        30.08R

$$

MOZ001>008-011>017-020>025-030>033-038>040-044>046-053-054-220300-
...NORTHERN AND CENTRAL MISSOURI...

CITY           SKY/WX    TMP DP  RH WIND       PRES   REMARKS
ST. JOSEPH     CLEAR     59  42  53 SE6       30.09R
MOSBY          CLEAR     50  46  87 CALM      30.11R
WHITEMAN AFB   CLEAR     60  44  57 SE5       30.11R
CLINTON        CLEAR     54  48  82 CALM      30.11R
SEDALIA        CLEAR     59  45  59 E6        30.13R
WARSAW         NOT AVBL
MARSHALL       CLEAR     59  48  67 E6        30.14R
CHILLICOTHE      N/A     59  45  59 E5        30.14R
MOBERLY        CLEAR     54  41  62 E6        30.16R
KIRKSVILLE     CLEAR     51  43  74 E5        30.17R

$$

MOZ041-047>049-056>058-063>065-088>090-097-220300-
...EASTERN AND SOUTHERN MISSOURI...

CITY           SKY/WX    TMP DP  RH WIND       PRES   REMARKS
ST. LOUIS INTL CLEAR     55  41  59 E6        30.18R
SPIRIT OF STL  CLEAR     50  45  83 E3        30.16R
COLUMBIA       CLEAR     54  45  71 E7        30.14R
JEFFERSON CITY CLEAR     59  44  57 E6        30.14R
MEXICO         CLEAR     54  46  76 NE5       30.16R
HANNIBAL       CLEAR     54  39  58 E6        30.18S
ROLLA          CLEAR     55  44  66 E7        30.13R
LEBANON        CLEAR     57  43  58 CALM      30.13R
OSAGE BEACH    CLEAR     55  45  67 NE5       30.12R
SPRINGFIELD    CLEAR     54  45  71 CALM      30.11R
BRANSON        CLEAR     54  48  82 CALM      30.11R
NEVADA         CLEAR     55  46  71 E6        30.11S
JOPLIN         CLEAR     58  50  75 E3        30.10R
WEST PLAINS    CLEAR     51  46  83 CALM      30.13R

$$

IAZ060-094-KSZ022-034>040-054-083-096-NEZ052-066-093-220300-
...KANSAS...SOUTHEAST NEBRASKA AND IOWA...

CITY           SKY/WX    TMP DP  RH WIND       PRES   REMARKS
TOPEKA         CLEAR     59  46  62 E5        30.07R
MANHATTAN      CLEAR     66  52  60 SE5       30.03R
EMPORIA        CLEAR     62  55  77 SE9       30.06R
CHANUTE        CLEAR     62  53  72 E6        30.07R
WICHITA        CLEAR     70  59  68 SE10      30.03R
OMAHA          CLEAR     61  39  44 SE13      30.06R
LINCOLN        CLEAR     63  40  42 SE10      30.04S
FALLS CITY     CLEAR     56  40  55 SE8       30.06R
LAMONI         CLEAR     55  45  68 E7        30.13R
DES MOINES     CLEAR     57  41  55 SE12      30.15R

$$




USA.gov is the U.S. government's official web portal to all federal, state and local government web resources and services.